Location: Br�znic
(45.9167°N, 22.6500°E)
Time: 15:03:06
(UTC+00:00)

USA 307 - Pass Details

Date: 03 March 2021
Orbit: 567 x 577 km, 54.0° (Epoch: 16 April)

Event Time Altitude Azimuth Distance (km) Brightness Sun altitude
Rises 18:19:05 0° 293° (WNW) 2,785 7.9 -21.6°
Reaches altitude 10° 18:21:37 10° 305° (NW) 1,884 6.5 -22.0°
Maximum altitude 18:25:19 28° 6° (N) 1,093 4.4 -22.6°
Enters shadow 18:25:53 27° 20° (NNE) 1,117 4.3 -22.7°
